TimeEDT,TemperatureF,Dew PointF,Humidity,Sea Level PressureIn,VisibilityMPH,Wind Direction,Wind SpeedMPH,Gust SpeedMPH,PrecipitationIn,Events,Conditions,WindDirDegrees,DateUTC
12:56 AM,72.0,68.9,90,30.03,8.0,NW,3.5,-,N/A,,Clear,310,2013-09-12 04:56:00
1:56 AM,72.0,68.9,90,30.01,8.0,Calm,Calm,-,N/A,,Clear,0,2013-09-12 05:56:00
2:56 AM,70.9,68.9,93,30.00,6.0,Calm,Calm,-,N/A,,Partly Cloudy,0,2013-09-12 06:56:00
3:56 AM,70.9,68.9,93,29.99,7.0,Variable,4.6,-,N/A,,Clear,0,2013-09-12 07:56:00
4:56 AM,70.0,68.0,93,29.98,7.0,Calm,Calm,-,N/A,,Scattered Clouds,0,2013-09-12 08:56:00
5:56 AM,68.0,66.9,96,29.98,5.0,Calm,Calm,-,N/A,,Clear,0,2013-09-12 09:56:00
6:56 AM,68.0,66.9,96,29.98,3.0,Calm,Calm,-,N/A,,Clear,0,2013-09-12 10:56:00
7:09 AM,66.2,66.2,100,29.96,2.0,Calm,Calm,-,N/A,,Clear,0,2013-09-12 11:09:00
7:56 AM,68.9,68.0,97,29.99,2.0,Calm,Calm,-,N/A,,Clear,0,2013-09-12 11:56:00
8:12 AM,69.8,68.0,94,29.96,3.0,Calm,Calm,-,N/A,,Clear,0,2013-09-12 12:12:00
8:56 AM,70.9,68.9,93,29.97,3.0,South,3.5,-,N/A,,Clear,180,2013-09-12 12:56:00
9:56 AM,75.9,68.9,79,29.97,8.0,West,6.9,-,N/A,,Scattered Clouds,270,2013-09-12 13:56:00
10:32 AM,73.4,68.0,83,29.95,10.0,West,8.1,-,N/A,,Mostly Cloudy,270,2013-09-12 14:32:00
10:45 AM,73.4,66.2,78,29.96,10.0,WNW,15.0,23.0,N/A,,Mostly Cloudy,290,2013-09-12 14:45:00
10:56 AM,69.8,66.2,88,29.96,2.0,West,9.2,-,N/A,Rain,Rain,270,2013-09-12 14:56:00
10:59 AM,69.8,66.2,88,29.96,1.2,West,8.1,-,0.04,Rain,Heavy Rain,260,2013-09-12 14:59:00
11:04 AM,69.8,66.2,88,29.96,1.0,Variable,5.8,-,0.10,Rain,Heavy Rain,0,2013-09-12 15:04:00
11:14 AM,68.0,66.2,94,29.96,1.2,WSW,8.1,-,0.16,Rain,Rain,250,2013-09-12 15:14:00
11:17 AM,68.0,66.2,94,29.96,1.5,West,9.2,-,0.17,Rain,Rain,260,2013-09-12 15:17:00
11:24 AM,68.0,66.2,94,29.96,1.8,WSW,6.9,-,0.18,Rain,Rain,240,2013-09-12 15:24:00
11:27 AM,68.0,66.2,94,29.96,2.0,WSW,5.8,-,0.18,Rain,Rain,240,2013-09-12 15:27:00
11:39 AM,68.0,66.2,94,29.95,2.5,WSW,4.6,-,0.21,Rain,Rain,240,2013-09-12 15:39:00
11:56 AM,68.0,66.9,96,29.96,3.0,Calm,Calm,-,0.24,Rain,Rain,0,2013-09-12 15:56:00
12:04 PM,68.0,66.2,94,29.93,3.0,Calm,Calm,-,0.01,Rain,Light Rain,0,2013-09-12 16:04:00
12:34 PM,69.8,68.0,94,29.93,7.0,WSW,4.6,-,0.02,Rain,Light Rain,250,2013-09-12 16:34:00
12:56 PM,68.9,68.0,97,29.95,10.0,Calm,Calm,-,0.02,,Mostly Cloudy,0,2013-09-12 16:56:00
1:06 PM,69.8,68.0,94,29.92,10.0,Calm,Calm,-,0.00,,Mostly Cloudy,0,2013-09-12 17:06:00
1:20 PM,69.8,68.0,94,29.91,10.0,Calm,Calm,-,0.00,,Overcast,0,2013-09-12 17:20:00
1:29 PM,69.8,68.0,94,29.91,8.0,Calm,Calm,-,0.00,,Overcast,0,2013-09-12 17:29:00
1:34 PM,69.8,69.8,100,29.91,1.2,WSW,5.8,-,0.07,Rain,Light Rain,250,2013-09-12 17:34:00
1:37 PM,69.8,69.8,100,29.91,0.8,West,5.8,-,0.09,Rain,Heavy Rain,280,2013-09-12 17:37:00
1:44 PM,69.8,68.0,94,29.91,1.2,West,6.9,-,0.10,Rain,Light Rain,280,2013-09-12 17:44:00
1:46 PM,69.8,68.0,94,29.91,2.0,WSW,9.2,-,0.10,Rain,Light Rain,250,2013-09-12 17:46:00
1:56 PM,69.8,69.8,100,29.91,10.0,WSW,6.9,-,N/A,,Overcast,250,2013-09-12 17:56:00
2:06 PM,71.6,69.8,94,29.90,10.0,West,9.2,-,0.00,,Mostly Cloudy,260,2013-09-12 18:06:00
2:13 PM,71.6,69.8,94,29.90,10.0,West,6.9,-,0.00,,Mostly Cloudy,260,2013-09-12 18:13:00
2:27 PM,71.6,69.8,94,29.89,10.0,West,8.1,-,0.00,,Mostly Cloudy,270,2013-09-12 18:27:00
2:56 PM,72.0,68.9,90,29.91,10.0,West,6.9,-,0.00,,Partly Cloudy,270,2013-09-12 18:56:00
3:56 PM,70.9,68.0,91,29.89,10.0,West,5.8,-,N/A,,Clear,260,2013-09-12 19:56:00
4:56 PM,72.0,68.0,87,29.87,10.0,Calm,Calm,-,N/A,,Partly Cloudy,0,2013-09-12 20:56:00
5:02 PM,71.6,68.0,88,29.85,1.5,West,10.4,-,0.08,Rain,Light Rain,270,2013-09-12 21:02:00
5:04 PM,69.8,66.2,88,29.84,1.0,West,8.1,-,0.09,Rain,Heavy Rain,270,2013-09-12 21:04:00
5:11 PM,69.8,64.4,83,29.84,1.2,WSW,5.8,-,0.10,Rain,Light Rain,250,2013-09-12 21:11:00
5:13 PM,69.8,64.4,83,29.84,2.0,West,5.8,-,0.10,Rain,Light Rain,260,2013-09-12 21:13:00
5:20 PM,68.0,64.4,88,29.83,10.0,WSW,3.5,-,0.10,Rain,Light Rain,250,2013-09-12 21:20:00
5:56 PM,68.0,65.8,93,29.88,10.0,West,5.8,-,0.10,,Partly Cloudy,260,2013-09-12 21:56:00
6:56 PM,68.9,66.9,93,29.88,9.0,Calm,Calm,-,N/A,,Mostly Cloudy,0,2013-09-12 22:56:00
7:16 PM,68.0,64.4,88,29.86,10.0,North,3.5,-,N/A,,Scattered Clouds,350,2013-09-12 23:16:00
7:56 PM,64.9,63.0,93,29.90,10.0,Calm,Calm,-,N/A,,Clear,0,2013-09-12 23:56:00
8:56 PM,61.0,59.9,96,29.91,10.0,Calm,Calm,-,N/A,,Clear,0,2013-09-13 00:56:00
9:48 PM,59.0,59.0,100,29.86,1.5,Calm,Calm,-,N/A,,Clear,0,2013-09-13 01:48:00
9:56 PM,59.0,59.0,100,29.89,1.0,Calm,Calm,-,N/A,,Clear,0,2013-09-13 01:56:00
10:00 PM,59.0,59.0,100,29.86,0.8,Calm,Calm,-,N/A,,Mist,0,2013-09-13 02:00:00
10:03 PM,60.8,60.8,100,29.87,0.2,Calm,Calm,-,N/A,Fog,Fog,0,2013-09-13 02:03:00
10:27 PM,57.2,57.2,100,29.86,0.5,Calm,Calm,-,N/A,Fog,Fog,0,2013-09-13 02:27:00
10:32 PM,57.2,57.2,100,29.86,1.0,Calm,Calm,-,N/A,,Mostly Cloudy,0,2013-09-13 02:32:00
10:37 PM,59.0,59.0,100,29.86,1.5,Calm,Calm,-,N/A,,Mostly Cloudy,0,2013-09-13 02:37:00
10:45 PM,59.0,59.0,100,29.87,2.5,Calm,Calm,-,N/A,,Mostly Cloudy,0,2013-09-13 02:45:00
10:56 PM,60.8,60.8,100,29.86,6.0,Calm,Calm,-,N/A,,Mostly Cloudy,0,2013-09-13 02:56:00
11:04 PM,60.8,60.8,100,29.86,1.8,Calm,Calm,-,N/A,,Mostly Cloudy,0,2013-09-13 03:04:00
11:08 PM,60.8,60.8,100,29.88,1.0,West,6.9,-,N/A,,Mostly Cloudy,260,2013-09-13 03:08:00
11:10 PM,60.8,60.8,100,29.88,0.5,West,10.4,-,N/A,Fog,Fog,270,2013-09-13 03:10:00
11:21 PM,59.0,59.0,100,29.90,0.8,NW,13.8,21.9,0.22,Rain,Heavy Rain,320,2013-09-13 03:21:00
11:26 PM,57.2,57.2,100,29.91,1.2,NNW,13.8,23.0,0.25,Rain,Heavy Rain,330,2013-09-13 03:26:00
11:31 PM,57.2,57.2,100,29.91,2.0,NNW,9.2,23.0,0.26,Rain,Heavy Rain,340,2013-09-13 03:31:00
11:38 PM,57.2,57.2,100,29.90,3.0,North,4.6,-,0.28,Rain,Rain,10,2013-09-13 03:38:00
11:56 PM,57.9,57.9,100,29.93,5.0,Calm,Calm,-,0.32,Rain,Light Rain,0,2013-09-13 03:56:00